Location: Grand Moustoir
(47.8355°N, 3.3120°W)
Time: 21:15:00
(UTC+00:00)

USA 238 - Pass Details

Date: 20 January 2020
Orbit: 1023 x 1189 km, 63.4° (Epoch: 10 February)

Event Time Altitude Azimuth Distance (km) Brightness Sun altitude
Exits shadow 06:38:43 14° 304° (WNW) 2,703 5.2 -12.5°
Maximum altitude 06:44:09 37° 244° (WSW) 1,723 4.5 -11.6°
Drops below altitude 10° 06:50:46 10° 181° (S) 3,090 6.4 -10.5°
Sets 06:53:44 0° 173° (S) 4,060 7.1 -10.1°
